Weather observations for the past three days for
Cape Lisburne, Cape Lisburne LRRS Airport
Metric (Imperial)
Date Time (akdt) Wind (kph) Vis. (km) Weather Sky Cond. Temperature (ºC) Relative Humidity Wind Chill (°C) Heat Index (°C) Pressure Precipitation (cm)
Air Dwpt 6 hour altimeter (cm) sea level (mb) 1 hr 3 hr 6 hr
Max. Min.
08 03:55 Calm 16.09 Overcast OVC012 -1.4 -2 -1.2 -1.6 96% 76.63 1021.6
08 02:55 Calm 16.09 Overcast OVC014 -1 -2 93% 76.66 1021.8
08 01:55 Calm 16.09 Overcast BKN006 OVC019 -1 -2 93% 76.66 1022.1
08 00:55 Calm 16.09 Overcast OVC009 -1.5 -2.2 95% 76.68 1022.3
07 23:55 Calm 16.09 Overcast OVC010 -1 -2 93% 76.68 1022.5
07 22:55 NE 7 16.09 Overcast OVC008 -1 -2 93% -3 76.71 1022.7
07 21:55 NE 13 16.09 Overcast OVC008 -1.3 -2.2 -1.4 -3 94% -5 76.71 1022.6
07 20:55 Calm 16.09 Overcast OVC008 -1 -2 93% 76.71 1022.6
07 19:55 E 7 16.09 Overcast OVC008 -2 -3 93% -4 76.73 1023.0
07 18:55 E 7 16.09 Overcast OVC007 -1.8 -2.5 95% -4 76.73 1023.1
07 17:55 E 9 16.09 Overcast OVC008 -2 -3 93% -5 76.76 1023.3
07 16:55 E 7 16.09 Overcast BKN009 OVC035 -2 -3 93% -4 76.76 1023.3
07 15:55 E 9 16.09 Overcast SCT008 OVC036 -2.8 -3.5 -2.6 -5.1 95% -6 76.78 1023.5
07 14:55 E 11 16.09 Overcast SCT008 OVC036 -3 -4 93% -7 76.78 1023.6
07 13:55 E 4 16.09 Overcast OVC010 -4 -5 93% 76.78 1023.9
07 12:55 Calm 16.09 Overcast OVC011 -4.3 -5.4 92% 76.78 1023.7
07 11:55 Calm 16.09 Overcast BKN009 OVC035 -5 -6 93% 76.78 1023.7
07 10:55 Calm 16.09 Overcast OVC008 -5 -6 93% 76.78 1023.7
07 09:55 N 2 16.09 Overcast OVC009 -5.1 -6.1 -4.9 -5.6 93% 76.78 1023.8
07 08:55 Calm 16.09 Overcast BKN010 OVC043 -5 -6 93% 76.78 1023.7
07 07:55 Calm 16.09 Overcast OVC007 -5 -6 93% 76.78 1023.5
07 06:55 N 6 16.09 Overcast OVC006 -5.3 -5.8 96% 76.78 1023.5
07 05:55 Calm 16.09 Overcast OVC006 -5 -6 93% 76.76 1023.3
07 04:55 N 9 16.09 Overcast OVC006 -5 -6 93% -9 76.76 1023.4
07 03:55 Vrbl 11 16.09 Overcast OVC006 -5.4 -6.1 -3.7 -5.4 95% -10 76.73 1023.1
07 02:55 N 13 16.09 Overcast OVC007 -5 -6 93% -10 76.73 1023.0
07 01:55 Vrbl 7 16.09 Overcast OVC006 -5 -6 93% -8 76.71 1022.7
07 00:55 N 19 16.09 Overcast OVC004 -4.9 -5.3 97% -11 76.68 1022.4
06 23:55 N 13 16.09 Overcast OVC005 -4 -5 93% -8 76.66 1022.1
06 22:55 N 20 16.09 Overcast OVC006 -4 -5 93% -10 76.66 1022.0
06 21:55 N 9 16.09 Overcast OVC006 -3.8 -4.3 -3.2 -4.6 96% -7 76.63 1021.6
06 20:55 NW 20 16.09 Overcast OVC006 -3 -4 93% -9 76.61 1021.4
06 19:55 NW 13 16.09 Overcast OVC006 -3 -4 93% -7 76.61 1021.3
06 18:55 NW 11 16.09 Overcast OVC006 -3.5 -4.4 94% -7 76.61 1021.1
06 17:55 NW 15 16.09 Overcast OVC006 -4 -4 100% -9 76.56 1020.6
06 16:55 N 13 16.09 Overcast OVC006 -4 -5 93% -8 76.53 1020.3
06 15:55 NW 15 16.09 Overcast OVC006 -4 -4.7 -4.4 -6.2 95% -9 76.5 1020.0
06 14:55 NW 19 16.09 Overcast OVC008 -4 -5 93% -10 76.5 1019.8
06 13:55 NW 11 16.09 Overcast OVC012 -5 -6 93% -9 76.48 1019.5
06 12:55 NW 15 16.09 Overcast OVC009 -5.3 -6.5 91% -10 76.45 1019.2
06 11:55 W 13 16.09 Overcast OVC009 -6 -7 93% -11 76.43 1018.9
06 10:55 NW 19 14.48 Overcast OVC006 -6 -7 93% -12 76.4 1018.4
06 09:55 N 15 16.09 Overcast OVC013 -4.9 -6.4 -4.7 -5.2 89% -10 76.35 1017.9
06 07:55 NW 7 16.09 Light Showers Snow OVC009 -5 -6 93% -8 76.28 1016.8
06 06:55 NW 11 16.09 Light Snow OVC009 -4.8 -5.6 94% -9 76.25 1016.4
06 05:55 NW 9 16.09 Light Snow OVC008 -5 -6 93% -9 76.23 1016.1
06 04:55 NW 11 16.09 Light Snow FEW016 OVC029 -5 -6 93% -9 76.2 1015.8
06 03:55 NW 9 16.09 Light Snow BKN010 OVC028 -4.9 -5.9 -4.6 -5 93% -8 76.2 1015.7
06 02:55 W 9 16.09 Light Snow OVC010 -5 -6 93% -9 76.17 1015.4
06 01:55 W 19 16.09 Light Snow OVC012 -5 -6 93% -11 76.15 1015.2
06 00:55 NW 17 16.09 Light Snow OVC011 -4.7 -6.1 90% -10 76.12 1015.0
05 23:55 W 13 16.09 Light Showers Snow OVC012 -5 -6 93% -10 76.12 1014.8
05 22:55 W 15 16.09 Overcast FEW013 OVC044 -5 -7 86% -10 76.12 1014.8
05 21:55 NW 15 16.09 Light Snow BKN012 OVC048 -4.9 -6.6 -4.6 -5.2 88% -10 76.1 1014.5
05 20:55 W 17 16.09 Light Snow BKN013 OVC049 -5 -7 86% -10 76.1 1014.5
05 19:55 NW 11 16.09 Light Showers Snow BKN014 OVC050 -5 -7 86% -9 76.07 1014.3
05 18:55 NW 11 16.09 Light Snow OVC014 -4.7 -6.8 85% -9 76.07 1014.2
05 17:55 NW 13 16.09 Light Showers Snow OVC012 -5 -7 86% -10 76.07 1014.1
05 16:55 NW 17 16.09 Light Showers Snow BKN013 OVC065 -5 -7 86% -10 76.07 1014.0
05 15:55 NW 17 16.09 Light Showers Snow OVC011 -5.1 -6.8 -4.5 -5.3 88% -11 76.05 1013.8
05 14:55 NW 17 14.48 Light Snow OVC011 -5 -7 86% -10 76.05 1013.9
05 13:55 NW 11 8.05 Light Snow OVC012 -5 -6 93% -9 76.05 1013.7
05 12:55 NW 15 6.44 Light Snow OVC013 -4.9 -6.5 89% -10 76.02 1013.6
05 11:55 NW 9 16.09 Light Showers Snow OVC012 -5 -7 86% -9 76.02 1013.5
05 10:55 Vrbl 11 16.09 Light Snow OVC012 -5 -7 86% -9 76.02 1013.5
05 09:55 NW 9 16.09 Light Snow OVC011 -5.2 -6.7 -4.2 -5.4 89% -9 76.05 1013.9
05 08:55 NW 9 16.09 Light Snow OVC010 -5 -6 93% -9 76.07 1014.0
05 07:55 NW 9 11.27 Light Showers Snow OVC012 -5 -7 86% -9 76.07 1014.1
05 06:55 W 13 16.09 Overcast OVC012 -5.1 -7.3 85% -10 76.05 1013.9
05 05:55 W 19 16.09 Light Snow OVC013 -5 -7 86% -11 76.05 1013.9
05 04:55 W 19 16.09 Overcast OVC011 -4 -6 86% -10 76.05 1013.9
Date Time (akdt) Wind (kph) Vis. (km) Weather Sky Cond. Air Dwpt Max. Min. Relative Humidity Wind Chill (°C) Heat Index (°C) altimeter (cm) sea level (mb) 1 hr 3 hr 6 hr
6 hour
Temperature (ºC) Pressure Precipitation (cm)